Vertical_Velocity
0 0 -0 -0 -0 -1 -1 -1 -1 -1 -1 -1 -0 -0 -0 0 0 0 0 0 0 0 0 0 -0 -0 -1 -1 -1 -1 -1 -0 -0 -0 -0 0 0 0 0 0 0 0 0 0 0 0 0 -0 -0 -0 -0 -0 -0 -0 -0 -0 -0 -0 -0 -0 -0 -1 -0 -0 -0 0 0 0 0 0 0 0 -0 -0 -0 -0 -1 -1 -1 -1 -2 -1 -1 -1 -1 -1 -1 -0 -0 -0 -0 0 0 0 0 -0 -0 -0 -1 -1 -1 -1 -1
0 0 0 0 -0 -0 -0 -0 -0 -0 -0 -0 0 0 0 0 0 0 0 0 0 0 0 0 0 0 -0 -0 -1 -1 -1 -1 -1 -1 -0 -0 -0 0 0 0 0 0 0 0 0 0 -0 -0 -0 -0 -0 -0 -0 -0 -0 -0 -0 -0 -0 -0 -1 -1 -1 -1 -1 -0 -0 -0 0 0 0 0 0 0 -0 -0 -0 -1 -1 -1 -1 -1 -1 -1 -1 -1 -1 -1 -0 -0 0 0 0 0 0 -0 -0 -0 -1 -1 -1 -1 -1
1 1 1 1 0 0 0 0 0 0 0 0 0 1 1 0 0 0 0 0 0 0 0 0 0 0 0 -0 -0 -0 -1 -1 -1 -1 -1 -1 -0 -0 0 0 0 0 0 0 0 0 -0 -0 -0 -0 -0 -0 -0 -0 -0 -0 -0 -0 -0 -0 -0 -1 -1 -1 -1 -1 -1 -0 -0 -0 0 0 0 0 0 0 -0 -0 -1 -1 -1 -1 -1 -1 -1 -1 -1 -1 -1 -1 -0 -0 0 0 0 -0 -0 -0 -1 -1 -1 -1 -1
1 1 1 1 1 1 0 1 1 0 0 0 0 1 1 0 0 0 0 0 0 0 -0 -0 -0 -0 0 -0 -0 -0 -0 -0 -0 -1 -1 -1 -1 -0 -0 -0 -0 -0 -0 0 0 0 -0 -0 -0 -0 -0 -0 -0 -0 -0 -0 -0 -0 -0 -0 -0 -0 -1 -1 -1 -1 -1 -1 -1 -0 -0 0 0 0 0 0 0 -0 -0 -0 -1 -1 -1 -1 -1 -1 -1 -1 -1 -1 -1 -0 -0 -0 0 -0 -0 -0 -1 -1 -1 -1 -1
1 1 1 1 1 1 1 1 0 0 0 0 0 1 0 0 0 0 -0 0 -0 -0 -0 -1 -0 -0 -0 -0 -0 -0 -0 -0 -0 -0 -0 -1 -1 -1 -1 -0 -0 -0 -0 -0 0 0 -0 -0 -0 -0 -0 -0 -0 -0 -0 -0 -0 -0 -1 -0 -0 -0 -0 -0 -0 -1 -1 -1 -1 -1 -0 -0 -0 0 0 0 0 0 -0 -0 -0 -0 -0 -1 -1 -1 -1 -1 -1 -1 -1 -1 -0 -0 -0 -0 -0 -0 -1 -1 -1 -1 -1
1 1 1 1 1 1 0 0 0 0 0 0 0 0 -0 -0 -0 -0 -0 -0 -1 -1 -0 -1 -1 -0 -0 -0 -0 -0 -0 -0 -0 -0 -0 -0 -1 -1 -1 -1 -1 -1 -1 -0 0 0 0 -0 -0 -0 -0 -1 -1 -1 -0 -0 -0 -0 -1 -1 -1 -1 -0 -0 -0 -0 -1 -1 -1 -1 -1 -1 -0 -0 0 0 0 -0 -0 -0 -0 -0 -0 -0 -1 -1 -1 -1 -1 -1 -1 -1 -1 -0 -0 -0 -0 -0 -1 -1 -1 -1 -1
1 1 1 1 1 0 -0 -0 -0 -0 -0 -0 -0 -0 -1 -1 -1 -1 -1 -1 -1 -0 -0 -1 -1 -1 -1 -1 -0 -0 -0 -0 -0 -0 -0 -0 -0 -0 -1 -1 -1 -1 -1 -1 -0 0 0 -0 -0 -0 -0 -1 -1 -1 -1 -1 -1 -1 -1 -1 -1 -1 -1 -0 -0 -0 -1 -1 -1 -1 -1 -1 -1 -0 0 0 -0 -0 -0 -0 -0 -0 -0 -0 -1 -1 -1 -1 -1 -1 -1 -1 -1 -1 -0 -0 -0 -0 -0 -1 -1 -1 -1
0 0 0 0 0 -0 -0 -1 -1 -1 -1 -1 -0 -1 -1 -1 -1 -1 -1 -1 -1 -1 -1 -1 -1 -1 -1 -1 -1 -1 -1 -0 -0 -0 -0 -0 -0 -0 -0 -0 -0 -0 -0 -1 -1 -0 0 -0 -0 -0 -0 -1 -1 -1 -1 -1 -1 -1 -1 -1 -1 -1 -1 -1 -1 -1 -1 -1 -1 -1 -1 -1 -1 -1 -0 -0 -0 -0 -0 -0 -0 -0 -0 -1 -1 -1 -1 -1 -1 -1 -1 -1 -1 -1 -1 -0 -0 -0 -0 -1 -1 -1 -1
-0 -0 -0 -0 -0 -0 -1 -1 -1 -1 -1 -1 -1 -1 -1 -1 -1 -1 -1 -1 -1 -1 -1 -1 -1 -1 -1 -1 -1 -1 -1 -0 -0 -0 -0 -0 -0 -0 -0 -0 -0 -0 -0 -0 -1 -1 -0 -0 -0 -0 -0 -0 -1 -1 -1 -1 -2 -2 -1 -1 -1 -1 -1 -1 -1 -1 -1 -1 -1 -1 -1 -1 -1 -1 -1 -1 -1 -0 -0 -0 -1 -1 -1 -1 -1 -1 -1 -1 -1 -1 -1 -1 -1 -1 -1 -0 -0 -0 -0 -0 -1 -1 -1
-1 -0 -0 -0 -0 -1 -1 -1 -1 -1 -1 -1 -1 -1 -1 -1 -1 -1 -1 -1 -1 -1 -1 -1 -1 -1 -1 -1 -1 -1 -1 -1 -1 -1 -1 -0 -0 -0 -1 -1 -1 -0 -0 -0 -1 -1 -0 -0 -1 -1 -1 -0 -0 -1 -1 -1 -2 -2 -2 -2 -2 -2 -2 -1 -1 -1 -1 -1 -1 -1 -1 -1 -1 -1 -1 -1 -1 -1 -1 -0 -1 -1 -1 -1 -1 -1 -1 -1 -1 -1 -1 -1 -1 -1 -1 -0 -0 -0 -0 -0 -1 -1 -1
-1 -1 -1 -1 -1 -1 -1 -1 -1 -1 -1 -1 -1 -1 -1 -1 -1 -1 -1 -1 -1 -1 -1 -1 -1 -1 -1 -1 -1 -1 -1 -1 -1 -1 -1 -1 -1 -0 -0 -0 -0 -0 -0 -0 -0 -0 -0 -0 -1 -1 -1 -0 -0 -0 -1 -1 -2 -2 -2 -2 -2 -2 -2 -2 -2 -2 -2 -2 -2 -2 -2 -1 -1 -1 -1 -1 -1 -1 -1 -1 -1 -1 -1 -1 -1 -1 -1 -1 -1 -1 -1 -1 -1 -1 -1 -0 -0 -0 -0 -0 -0 -1 -1
-1 -1 -1 -1 -1 -1 -1 -1 -1 -1 -1 -1 -1 -1 -1 -1 -1 -1 -0 -0 -0 -0 -0 -0 -0 -0 -0 -0 -0 -1 -1 -1 -0 -0 -0 -1 -1 -0 -0 -0 -0 -0 -0 -0 -0 -0 -0 -0 -1 -1 -1 -0 -0 0 -0 -1 -1 -1 -2 -2 -2 -2 -2 -2 -2 -2 -2 -2 -2 -2 -2 -2 -1 -1 -1 -1 -1 -1 -1 -1 -1 -1 -1 -1 -1 -1 -1 -1 -1 -1 -1 -1 -1 -1 -1 -1 -0 -0 -0 -0 -0 -0 -1
-0 -0 -0 -0 -0 -0 -0 -0 -0 -0 -0 -0 -0 -0 -0 -0 -0 -0 -0 -0 -0 -0 -0 -0 -0 -0 -0 -0 -0 -0 -1 -0 -0 -0 -0 0 -0 -0 -0 -0 -0 -0 -0 -0 0 0 0 0 -0 -0 -1 -0 -0 0 0 -0 -1 -1 -1 -2 -2 -2 -2 -2 -2 -2 -2 -2 -2 -2 -2 -2 -2 -1 -1 -1 -1 -1 -1 -1 -1 -1 -1 -1 -1 -1 -1 -1 -1 -1 -1 -1 -1 -1 -1 -1 -0 -0 -0 -0 -0 -0 -0
0 0 1 1 1 1 0 0 1 1 1 1 1 1 0 0 0 0 0 -0 -0 -0 -0 -0 -0 -0 -0 -0 -0 -0 -1 -0 -0 -0 -0 -0 -0 -0 -0 -0 -0 -0 0 0 0 0 0 1 0 0 -0 -0 0 0 0 0 0 -0 -1 -2 -2 -2 -2 -2 -2 -2 -2 -2 -2 -2 -2 -2 -2 -2 -1 -1 -1 -1 -1 -1 -1 -1 -1 -0 -0 -0 -0 -0 -1 -1 -1 -1 -1 -1 -1 -1 -1 -1 -0 -0 -0 -0 -0
1 1 1 1 1 1 1 1 1 1 1 1 1 1 1 1 1 1 1 1 0 0 0 0 0 0 0 -0 -0 -0 -0 -0 0 0 0 -0 0 0 0 0 -0 -0 0 0 0 0 0 1 1 1 1 0 0 0 0 1 1 0 -0 -1 -1 -2 -2 -2 -2 -2 -2 -2 -2 -2 -2 -2 -2 -2 -2 -1 -1 -1 -1 -1 -1 -1 -0 -1 -0 -0 -0 -1 -1 -1 -1 -1 -1 -1 -1 -1 -1 -1 -1 -0 -0 -0 0
2 2 2 2 2 1 1 1 1 1 1 1 1 1 1 1 1 1 1 1 1 1 0 1 1 1 1 1 0 0 0 0 -0 -0 0 0 0 0 0 0 0 0 0 -0 -0 0 0 0 1 1 1 1 1 1 1 1 1 1 1 0 -0 -1 -1 -1 -1 -2 -2 -2 -2 -2 -2 -2 -2 -2 -2 -2 -1 -1 -1 -1 -1 -1 -1 -1 -1 -0 -1 -1 -1 -1 -1 -1 -1 -1 -1 -1 -1 -1 -1 -1 -1 -0 -0
1 2 2 2 1 1 1 1 1 1 1 1 1 1 1 1 1 1 1 1 1 1 1 1 1 1 1 1 1 1 1 0 0 -0 -0 0 0 0 0 0 0 0 0 0 -0 -0 -0 0 0 0 1 1 1 0 0 1 1 2 1 1 1 0 -0 -0 -1 -1 -1 -1 -1 -2 -2 -2 -2 -2 -2 -2 -2 -2 -2 -2 -2 -2 -1 -2 -1 -1 -1 -1 -1 -1 -1 -1 -1 -1 -1 -1 -1 -1 -1 -1 -1 -1 -0
1 1 1 1 1 1 1 1 1 1 1 1 1 1 1 1 1 1 1 1 1 1 1 1 1 1 1 1 1 1 1 1 1 1 0 0 0 0 0 1 1 1 1 1 0 0 0 0 0 0 1 1 0 0 -0 0 1 1 1 1 1 1 1 1 0 -0 -1 -1 -1 -1 -1 -2 -2 -2 -2 -2 -2 -2 -2 -2 -2 -2 -2 -2 -2 -2 -1 -1 -2 -2 -2 -1 -1 -1 -1 -1 -1 -1 -1 -1 -1 -1 -1
1 1 1 1 1 1 1 1 1 1 1 1 1 1 1 1 1 1 1 1 1 1 1 1 1 1 1 1 1 1 1 1 1 1 1 1 1 1 1 1 1 1 1 1 1 1 1 1 1 1 1 1 1 1 0 0 0 0 0 0 1 1 1 1 1 0 0 -0 -0 -1 -1 -1 -1 -1 -1 -2 -2 -2 -2 -2 -2 -3 -3 -3 -2 -1 1 -0 -1 -2 -2 -2 -2 -1 -1 -1 -1 -1 -1 -1 -1 -1 -1
1 1 1 1 1 1 1 1 1 1 1 1 1 1 1 1 1 1 1 1 1 1 1 1 1 1 1 1 1 1 1 1 2 2 2 2 1 1 1 1 2 2 2 2 2 2 2 2 2 2 2 2 2 2 1 1 1 1 0 0 0 0 0 0 1 1 1 0 0 -0 -0 -1 -1 -1 -1 -1 -1 -2 -2 -2 -2 -2 -3 -3 -3 -1 2 1 -0 -1 -1 -2 -2 -2 -2 -2 -1 -1 -1 -1 -1 -1 -1
1 1 1 1 1 1 1 1 1 1 1 1 1 1 1 1 1 1 1 1 1 1 1 1 1 1 1 1 1 1 2 2 2 2 2 2 2 2 2 2 2 2 2 2 2 2 2 2 2 2 2 2 2 2 2 2 2 2 1 1 1 1 0 0 0 0 0 0 0 0 -0 -0 -0 -1 -1 -1 -1 -1 -1 -1 -2 -2 -2 -3 -3 -2 1 1 0 -0 -0 -1 -2 -2 -2 -2 -2 -2 -2 -2 -1 -1 -1
0 0 0 0 0 1 1 1 1 1 1 1 1 1 1 1 1 1 0 0 1 1 1 1 1 1 1 1 1 1 1 1 1 1 1 1 1 1 1 2 2 2 2 2 2 2 2 2 1 1 1 1 1 1 1 1 1 2 2 2 2 2 2 1 1 1 0 -0 -0 -0 -0 -0 -0 -1 -1 -1 -1 -1 -1 -1 -1 -2 -2 -2 -3 -2 -1 0 1 0 0 -0 -1 -1 -2 -2 -2 -1 -1 -2 -1 -1 -1
0 -0 -0 -0 -0 -0 -0 0 0 0 0 0 -0 -0 0 0 0 -0 -0 -0 -0 -0 0 0 0 0 0 0 0 0 1 0 0 -0 0 0 0 0 0 1 1 1 1 1 1 1 1 1 1 1 0 0 -0 -0 -0 0 0 0 0 1 1 1 2 2 2 1 1 0 0 -0 -1 -1 -1 -1 -1 -1 -1 -1 -1 -1 -1 -1 -1 -2 -2 -2 -3 -1 -0 0 0 0 -0 -0 -1 -1 -1 -1 -1 -1 -1 -1 -1
-0 -0 -0 -1 -1 -1 -1 -1 -1 -1 -1 -1 -1 -1 -0 -0 -1 -1 -1 -1 -1 -1 -1 -1 -1 -1 -1 -1 -1 -1 -0 -0 -1 -1 -1 -1 -0 -0 -1 -1 -0 -0 -0 -0 -0 -0 -0 0 -0 -0 -0 -0 -1 -1 -1 -1 -1 -1 -1 -1 -1 -1 -0 0 0 1 1 1 0 0 -0 -1 -1 -1 -1 -1 -1 -1 -1 -1 -1 -1 -1 -1 -1 -2 -3 -2 -1 1 1 -0 -0 0 -0 -1 -1 -1 -1 -1 -1 -1 -1
-1 -1 -1 -1 -1 -1 -1 -1 -1 -1 -1 -1 -2 -2 -1 -1 -1 -2 -2 -2 -2 -2 -2 -2 -2 -2 -2 -2 -2 -2 -1 -1 -1 -1 -1 -1 -1 -1 -1 -1 -1 -1 -1 -1 -1 -1 -1 -1 -1 -1 -1 -1 -1 -1 -1 -0 -1 -1 -1 -2 -2 -2 -2 -1 -1 -1 -1 -1 -0 -0 -0 -0 -0 -1 -1 -1 -1 -1 -1 -1 -1 -1 -0 -1 -1 -1 -2 -2 -1 0 2 1 -0 -0 0 -0 -0 -1 -1 -1 -1 -1 -1
-1 -1 -1 -2 -2 -1 -1 -1 -1 -1 -1 -1 -2 -2 -2 -2 -2 -2 -3 -3 -3 -3 -3 -3 -3 -3 -3 -3 -3 -2 -2 -2 -2 -1 -1 -1 -1 -1 -1 -0 -0 -1 -1 -1 -1 -1 -1 -1 -1 -1 -1 -1 -1 -1 -0 0 0 -0 -1 -1 -1 -1 -2 -2 -2 -2 -1 -1 -1 -1 -1 -1 -1 -1 -1 -1 -1 -1 -1 -1 -1 -0 -0 -0 -0 -1 -1 -2 -2 -1 0 1 1 -0 -0 0 0 0 -0 -1 -1 -1 -1
-1 -2 -2 -1 -1 -1 -1 -1 -1 -1 -1 -2 -2 -3 -3 -3 -3 -3 -3 -3 -3 -3 -2 -2 -2 -2 -2 -3 -3 -3 -2 -3 -3 -2 -2 -2 -2 -2 -2 -1 -0 -0 -1 -1 -1 -1 -1 -1 -1 -1 -1 -1 -1 -1 -1 -0 0 0 -0 -0 -1 -1 -1 -1 -1 -1 -1 -1 -1 -1 -1 -1 -1 -1 -1 -1 -1 -1 -1 -0 -0 -0 -0 -0 -0 -0 -1 -1 -2 -2 -2 -0 1 1 0 0 1 1 1 -0 -0 -1 -1
-1 -1 -1 -1 -1 -1 -1 -1 -1 -1 -2 -2 -2 -2 -3 -3 -3 -2 -2 -2 -2 -2 -2 -2 -2 -2 -2 -2 -2 -2 -2 -3 -3 -3 -3 -3 -3 -3 -3 -2 -2 -1 -1 -1 -1 -1 -1 -1 -1 -1 -1 -1 -1 -2 -1 -1 -0 0 -0 -0 -0 -1 -1 -1 -1 -1 -0 -0 -0 0 0 0 -0 -0 -0 -0 -1 -1 -1 -1 -0 -0 -0 -0 -0 -0 -0 -0 -1 -2 -3 -2 -0 1 2 2 1 1 1 1 0 -0 -0
-1 -1 -1 -1 -1 -1 -1 -2 -2 -2 -3 -3 -2 -2 -2 -3 -3 -2 -1 -1 -2 -2 -2 -2 -2 -2 -2 -2 -2 -1 -2 -2 -3 -2 -2 -3 -3 -3 -3 -3 -2 -2 -2 -2 -2 -2 -2 -1 -1 -1 -1 -1 -1 -1 -2 -1 -1 -0 -0 -0 -0 -0 -0 -1 -1 -0 -0 -0 0 1 1 1 1 1 1 1 0 0 -0 -0 -0 -0 -0 -0 -0 0 0 0 -0 -1 -2 -2 -0 1 2 2 2 2 1 1 1 0 -0
-2 -2 -2 -2 -2 -2 -2 -2 -2 -2 -3 -3 -3 -2 -2 -3 -3 -2 -2 -1 -1 -1 -2 -2 -2 -2 -2 -2 -1 -1 -1 -2 -2 -2 -1 -2 -2 -2 -2 -2 -2 -2 -2 -3 -3 -3 -2 -2 -2 -2 -2 -1 -1 -1 -2 -1 -1 -0 -0 -0 -0 -0 -0 -0 -0 -0 -1 -0 -0 0 1 1 2 2 2 2 2 2 1 1 0 -0 -0 -0 -0 -0 0 1 1 1 0 -0 -0 1 2 1 2 2 2 2 1 1 1
-2 -3 -3 -3 -3 -2 -3 -2 -2 -2 -4 -4 -3 -2 -2 -3 -3 -3 -2 -2 -2 -2 -2 -2 -2 -2 -2 -2 -1 -1 -1 -1 -2 -2 -1 -1 -1 -1 -1 -2 -2 -2 -2 -2 -3 -3 -2 -3 -3 -2 -2 -2 -2 -2 -2 -2 -2 -1 -1 -0 -0 -0 -0 -0 -0 -0 -0 -0 -0 -0 0 1 1 2 2 2 3 3 3 2 2 1 0 0 -0 0 0 1 1 1 1 1 1 1 2 1 0 1 2 2 2 1 1
-3 -3 -3 -2 -2 -1 -2 -1 -1 -2 -3 -4 -3 -2 -1 -2 -2 -3 -2 -2 -2 -2 -2 -2 -2 -2 -2 -2 -1 -1 -1 -1 -2 -2 -1 -1 -0 -0 -1 -1 -1 -1 -1 -2 -2 -2 -2 -3 -3 -2 -2 -2 -2 -2 -2 -3 -3 -2 -2 -1 -1 -1 -1 -1 -1 -1 -0 -0 -0 -0 -0 -0 0 0 1 1 2 2 3 3 3 2 2 1 1 1 1 1 1 2 2 2 2 2 3 1 0 -0 0 1 1 1 1
-2 -2 -2 -1 -1 -1 -0 0 -0 -1 -2 -3 -2 -2 -1 -1 -1 -2 -1 -1 -1 -1 -1 -2 -2 -2 -2 -2 -1 -1 -0 -1 -2 -3 -2 -0 -0 -0 -1 -1 -1 -1 -1 -1 -1 -1 -1 -2 -2 -2 -1 -1 -2 -2 -2 -3 -3 -3 -2 -2 -1 -1 -1 -1 -1 -1 -1 -1 -0 -0 -0 -0 -1 -1 -0 -0 0 1 2 2 3 3 3 2 2 2 1 1 1 2 2 2 2 2 2 2 2 1 0 -0 1 1 3
-1 -0 0 1 1 1 1 1 0 -0 -1 -2 -2 -1 -1 -0 -0 -0 -0 0 1 1 0 -1 -1 -1 -1 -1 -1 -0 0 -1 -2 -3 -3 -1 -0 -0 -1 -0 -0 -0 -1 -1 -0 -0 -1 -1 -1 -1 -0 -0 -1 -1 -2 -2 -2 -2 -2 -2 -1 -1 -1 -1 -1 -1 -1 -1 -1 -1 -1 -1 -1 -1 -1 -1 -0 0 1 1 2 2 3 3 3 3 2 2 2 2 2 2 3 3 2 3 3 3 2 1 0 1 2
-0 1 2 2 3 3 3 2 1 1 -0 -1 -1 -1 -0 0 0 1 1 1 2 2 1 0 -0 -0 -0 -0 -0 1 1 0 -1 -2 -2 -1 -0 0 0 -0 -0 -0 -1 -1 -0 -0 -1 -0 -0 0 0 0 0 0 -0 -1 -2 -2 -2 -1 -1 -1 -1 -1 -0 -0 -0 -0 -0 -0 -1 -1 -1 -1 -1 -1 -0 -0 0 1 1 2 2 3 3 3 3 2 2 2 2 2 3 3 3 2 2 3 3 3 2 1 1
1 2 2 3 4 5 5 4 3 2 1 0 0 0 1 1 1 1 1 1 2 2 1 1 1 1 0 0 1 1 2 1 0 -0 0 0 0 1 1 1 0 0 -0 -0 0 0 -0 0 1 1 1 1 1 1 1 -0 -1 -1 -1 -0 -0 -1 -1 -1 -0 1 1 1 1 1 0 0 -0 -0 -0 -1 -0 -0 -0 0 1 1 2 2 3 3 3 3 3 2 2 2 3 3 3 2 2 2 2 3 4 3 2
1 2 3 3 4 5 5 4 3 2 2 2 2 2 2 2 2 2 2 2 2 2 1 2 2 1 1 1 1 2 2 2 2 1 2 2 2 2 2 2 2 1 1 1 1 1 0 1 2 2 2 2 1 1 1 0 -0 -0 0 0 0 -0 -1 -1 -0 1 1 1 1 1 1 1 1 1 0 -0 -0 -1 -1 -0 0 1 1 2 2 2 3 3 3 3 2 2 2 2 3 2 2 2 1 2 3 4 4
2 2 3 3 4 4 4 3 2 2 1 2 2 2 2 2 2 2 2 1 1 1 1 1 1 2 2 2 2 2 3 3 3 2 3 3 4 4 4 4 3 2 2 2 2 2 1 1 2 2 2 2 1 1 0 0 0 1 1 1 0 0 -0 -0 -0 -0 -0 0 1 2 2 2 2 1 1 1 0 -0 -1 -1 -1 -1 -0 0 1 2 2 3 3 3 3 3 2 2 2 2 2 2 1 1 1 1 3
2 2 3 3 3 3 2 2 1 1 0 1 2 2 2 1 1 1 1 0 0 1 1 -0 -0 1 2 2 1 2 3 3 2 2 3 3 4 4 5 4 3 2 2 2 2 2 2 2 2 2 2 2 1 1 0 1 2 2 2 1 1 1 1 0 -0 -1 -2 -2 -1 0 1 2 2 2 1 1 1 0 -0 -1 -1 -2 -2 -1 -1 0 1 2 2 3 3 3 3 3 2 2 2 2 2 1 1 0 1
3 2 2 3 3 3 2 1 0 0 0 1 1 1 1 1 1 0 0 0 0 1 1 -0 -1 -1 1 2 2 1 1 2 1 0 1 2 2 2 3 3 2 1 1 0 0 -0 1 1 2 2 2 2 2 1 1 3 4 4 3 3 2 2 2 1 0 -1 -2 -2 -2 -1 -0 1 1 1 1 1 1 1 1 1 -0 -1 -2 -2 -2 -2 -1 -0 1 2 2 3 3 3 3 3 3 2 2 2 1 1 0
3 2 2 3 2 2 2 1 0 0 1 1 2 2 2 2 1 0 0 1 1 2 2 1 -0 -1 -2 1 2 1 0 2 2 0 -1 0 0 -0 -0 1 1 0 -0 -1 -1 -2 -1 -0 0 0 1 1 1 1 2 4 5 5 4 4 4 3 3 2 2 1 0 -0 -1 -1 -1 0 0 0 0 0 1 1 1 2 1 1 -0 -1 -2 -2 -2 -2 -1 -0 1 1 2 2 3 3 3 3 3 3 3 2 1
2 2 2 2 2 2 1 1 0 1 1 1 2 2 2 2 1 1 -0 -0 1 2 3 2 1 -1 -2 -1 0 1 1 2 2 2 -0 -1 -1 -0 -1 -1 -0 0 0 -0 -1 -1 -1 -1 -0 -0 -0 -0 -0 1 2 3 4 4 4 3 3 3 3 4 4 3 3 2 2 1 1 1 1 1 1 1 0 0 0 1 1 2 2 1 0 -0 -1 -1 -1 -1 -1 -0 0 1 1 2 3 3 4 4 3 3 3
1 1 1 1 1 1 1 0 0 1 1 1 2 2 2 1 1 0 -0 -1 -0 0 2 3 2 -0 -1 -1 -1 -0 0 0 1 1 0 -1 -1 -1 -0 -0 -0 0 1 1 1 0 1 1 1 0 -0 -1 -0 1 2 3 3 3 2 0 -0 1 2 3 3 4 4 3 3 2 2 2 2 1 1 1 0 -0 -1 -0 1 1 2 2 2 2 1 0 -0 -0 -1 -1 -1 -1 -1 0 1 2 3 3 3 3 3
1 1 0 0 0 0 0 -0 0 0 1 1 1 1 1 1 1 0 -0 -1 -1 -1 -0 2 2 1 -1 -2 -2 -1 -1 -2 -2 -1 -1 -1 -2 -1 -0 0 0 0 1 2 2 2 2 2 1 1 0 -0 -0 0 2 3 3 2 1 -1 -1 -1 1 1 2 3 3 3 2 1 1 1 1 0 0 0 -1 -1 -1 -1 0 1 1 2 2 2 2 2 2 1 1 0 -0 -1 -2 -1 -1 -0 1 2 2 3 3
0 0 -0 -0 -0 -0 -0 -0 0 0 0 1 1 1 1 1 1 1 0 -0 -0 -1 -1 -0 1 1 -0 -1 -2 -2 -2 -3 -3 -4 -3 -3 -2 -1 -0 0 0 0 0 1 2 3 2 1 0 -0 -0 0 0 0 1 2 2 2 1 -0 -0 -0 0 1 2 2 2 1 1 -0 0 0 0 -0 -1 -1 -1 -2 -1 -0 -0 0 0 1 1 2 2 3 3 3 3 2 1 0 -1 -1 -2 -1 -1 -0 1 2 2
0 0 -0 -0 -0 -0 -0 -0 -0 0 0 0 0 0 0 0 0 0 0 -0 -0 -0 -1 -1 -1 0 1 0 -1 -1 -2 -2 -3 -4 -4 -3 -3 -2 -1 -0 1 1 -0 0 2 3 2 1 -0 -1 -1 -0 1 1 1 1 1 1 0 0 1 1 1 2 2 2 2 1 0 -0 1 1 1 0 -0 -1 -2 -2 -1 -1 -0 -0 -0 0 0 1 2 2 3 3 3 3 3 2 1 -0 -1 -2 -2 -1 -0 0 1
1 0 0 0 0 -0 -0 -0 -0 -0 -0 -0 -0 -0 -0 -0 -0 -1 -1 -1 -1 -1 -1 -1 -2 -1 0 1 1 1 -1 -1 -2 -3 -5 -4 -2 -1 -2 -3 -1 0 1 -0 1 2 3 1 0 -0 0 1 1 2 2 1 0 0 0 1 1 1 1 2 3 3 3 2 1 1 2 2 2 2 1 0 -0 -1 -1 -1 -1 -0 -0 -0 0 0 1 1 2 2 3 3 3 3 2 2 1 -0 -1 -1 -1 -0 0
1 1 1 0 0 0 -0 -0 -0 -1 -1 -1 -1 -1 -1 -1 -1 -1 -2 -2 -2 -1 -1 -1 -2 -2 -2 1 2 2 2 -0 -1 -2 -4 -6 -4 -1 2 -2 -4 -4 -1 -1 -1 -1 1 1 0 0 1 1 2 2 2 1 1 0 0 1 1 1 2 3 3 4 4 3 2 2 3 3 2 2 2 2 1 1 1 0 -0 -0 -0 0 0 0 -0 0 0 1 1 2 2 3 3 2 2 2 1 0 -0 -0 -0
1 1 1 1 0 0 0 0 0 -0 -1 -1 -1 -1 -1 -1 -0 -0 -1 -1 -1 -1 -1 -1 -1 -3 -4 -3 -0 2 3 1 -1 -1 -2 -5 -8 -7 -2 2 0 -3 -4 -2 -3 -5 -5 -3 -2 -1 -0 1 1 1 1 1 1 0 0 1 1 1 2 3 3 3 4 3 3 3 4 3 3 3 2 2 2 2 2 2 1 1 1 1 1 0 0 0 0 1 1 1 2 2 2 2 2 2 2 1 0 -0 -1
1 1 0 0 0 0 0 0 1 1 0 -0 -0 -0 -0 -0 -0 0 0 -0 -0 -1 -1 -1 0 -0 -2 -5 -4 -0 2 -0 -1 -2 -4 -4 -5 -9 -15 -9 -4 -1 -0 0 -1 -3 -7 -7 -6 -5 -3 -3 -2 -1 -1 -0 -0 -1 0 1 0 -0 1 2 3 3 2 2 2 3 4 3 3 2 1 1 2 2 2 2 2 2 2 2 1 1 1 1 1 1 1 1 2 2 2 2 2 1 1 1 -0 -0 -1
1 1 0 0 0 0 0 0 1 1 1 1 1 1 1 0 0 0 1 0 -0 -1 -1 -2 -1 1 2 -2 -4 -3 0 -1 -2 -3 -7 -7 -4 -2 -9 -17 -17 -11 -3 1 5 6 3 -5 -8 -8 -7 -6 -5 -4 -3 -2 -2 -2 -2 -1 -1 -1 0 2 2 2 1 0 1 2 3 3 3 2 1 1 1 1 1 1 1 1 2 2 2 2 2 2 2 3 3 2 2 2 2 2 1 1 1 0 -0 -1 -1
0 0 0 0 0 -0 -0 -0 -0 -0 0 0 0 1 1 1 -0 -0 -0 0 -0 -1 -1 -2 -3 -3 1 2 0 -2 -0 -0 -1 -3 -4 -9 -8 -3 1 -7 -16 -20 -16 -16 -10 1 18 5 -3 -7 -7 -9 -8 -7 -6 -4 -4 -4 -3 -3 -3 -2 -1 1 2 2 1 0 1 2 3 3 3 2 2 2 1 1 2 2 1 1 1 2 2 2 2 3 4 5 5 4 3 2 2 1 1 1 1 0 0 -0 -1
-0 -0 -0 -0 -0 -1 -1 -1 -1 -1 -1 -1 -2 -2 -1 -1 -1 -2 -2 -2 -2 -2 -2 -3 -4 -6 -6 -2 1 1 -0 1 1 -1 -2 -6 -9 -11 -8 -0 -4 -12 -14 -19 -30 -29 3 12 3 -8 -4 -3 -6 -9 -8 -6 -6 -5 -4 -5 -4 -4 -2 -1 -0 1 -0 0 1 2 3 3 3 3 3 3 2 2 2 3 2 2 1 1 1 2 2 3 4 6 6 6 5 4 4 3 2 2 1 1 0 0 -0
-1 -1 -1 -1 -1 -1 -2 -2 -2 -2 -2 -3 -3 -4 -4 -3 -3 -3 -4 -4 -5 -5 -4 -5 -5 -6 -9 -9 -5 -1 -1 0 0 -0 -2 -3 -5 -9 -18 -12 -5 -2 -2 -1 -16 -31 -30 -2 0 -6 -7 4 1 -7 -9 -6 -6 -6 -5 -5 -5 -4 -4 -4 -2 -2 -2 -2 -0 1 2 2 3 4 4 3 3 4 3 4 4 4 2 2 2 2 2 3 4 5 6 6 6 7 7 6 5 4 3 2 1 1 0
-1 -2 -2 -2 -2 -2 -2 -3 -3 -3 -3 -3 -3 -4 -4 -4 -4 -4 -4 -5 -6 -6 -6 -6 -6 -6 -8 -11 -10 -7 -3 -2 -1 -1 -2 -4 -2 -2 -9 -18 -19 -15 -9 -1 0 -6 -20 -16 -14 -12 -8 11 7 -5 -9 -6 -5 -5 -5 -5 -5 -5 -5 -5 -5 -5 -5 -4 -2 -1 -0 0 1 2 3 3 3 4 5 5 5 5 4 3 3 3 2 3 4 5 5 5 6 7 8 8 8 7 6 5 4 3 2
-2 -2 -2 -2 -2 -2 -3 -3 -3 -3 -3 -2 -3 -3 -3 -3 -3 -3 -3 -3 -4 -5 -5 -5 -5 -5 -5 -7 -10 -11 -6 -3 -1 1 1 -2 -1 1 1 -5 -11 -17 -22 -20 -14 -8 -3 -3 -15 -26 -25 15 17 1 -9 -5 -4 -4 -4 -4 -5 -5 -5 -4 -4 -5 -7 -5 -4 -4 -3 -2 -1 0 1 2 2 2 5 5 6 5 5 4 3 3 3 4 4 4 4 4 5 7 9 9 9 8 7 7 6 6 5
-2 -2 -2 -2 -2 -2 -2 -2 -2 -2 -2 -2 -2 -2 -3 -3 -2 -2 -1 -1 -1 -2 -2 -2 -3 -3 -3 -2 -5 -8 -8 -5 -2 1 5 2 1 2 5 4 2 0 -3 -14 -19 -20 -19 1 -1 -19 -45 -5 16 18 1 -3 -3 -2 -1 -3 -3 -4 -5 -4 -4 -4 -6 -6 -6 -5 -5 -4 -3 -3 -1 0 -0 -0 2 4 5 5 5 3 2 1 1 2 3 4 4 3 4 5 8 9 9 8 7 6 6 7 7
-2 -2 -2 -2 -2 -2 -2 -2 -2 -2 -2 -1 -1 -1 -2 -1 -1 -1 -1 -0 -1 -1 -1 -1 -1 -2 -2 -1 -1 -2 -5 -5 -4 -2 2 5 5 4 5 6 5 5 6 3 -1 -9 -20 -13 -6 -8 -28 -31 -11 16 29 8 -0 -1 -1 -1 -2 -3 -4 -5 -4 -4 -5 -5 -6 -7 -6 -4 -3 -3 -4 -2 -2 -1 1 3 5 5 5 4 2 1 -1 0 1 2 2 2 2 3 5 8 10 11 10 7 6 5 5
-1 -1 -1 -1 -1 -1 -1 -1 -1 -1 -1 -1 -1 -0 -1 -1 -1 -0 -0 -0 -1 -1 -1 -1 -1 -2 -2 -2 -2 -2 -3 -3 -3 -3 -4 0 4 6 6 5 5 5 4 6 7 5 -1 -8 -12 -13 -8 -30 -37 -23 20 23 15 5 -1 -1 -0 -1 -2 -4 -5 -5 -5 -5 -5 -6 -8 -6 -3 -1 -3 -4 -4 -3 -2 2 4 6 6 5 3 1 -1 -0 -0 0 0 1 1 2 3 5 8 11 12 11 9 8 6
-0 -0 -0 -0 -0 -0 -0 -0 -0 -0 -0 -0 -1 -1 -1 -1 -1 -1 0 -0 -0 -0 -0 -1 -1 -1 -1 -1 -1 -2 -3 -3 -2 -1 -1 -4 -3 1 7 4 3 3 3 3 5 6 6 4 -1 -6 -8 -14 -27 -37 -33 3 19 19 9 5 1 -0 1 -1 -2 -3 -3 -4 -4 -5 -8 -8 -6 -3 -1 -2 -2 -3 -4 -2 0 3 4 5 4 3 1 1 -0 -1 -1 -1 -1 0 2 4 5 8 11 12 11 11 11
0 0 0 -0 -0 -0 -0 -0 -0 -1 -1 -1 -1 -1 -1 -1 -1 -1 -1 -1 -1 -0 0 0 0 -0 -0 0 0 -0 -1 -2 -2 -1 1 -1 -4 -4 2 3 2 2 2 2 2 3 3 4 5 4 -2 -8 -12 -20 -35 -24 -5 10 12 16 11 3 0 3 2 -0 0 0 -1 -4 -6 -7 -7 -5 -2 -1 -1 -1 -3 -4 -2 -0 1 2 3 4 2 1 1 0 -1 -2 -2 -1 0 2 3 5 7 8 9 9 11
Height
3145 3145 3145 3144 3144 3144 3144 3143 3143 3143 3143 3143 3142 3142 3142 3142 3142 3142 3142 3142 3141 3141 3141 3140 3140 3140 3139 3139 3139 3138 3138 3138 3138 3137 3137 3137 3137 3136 3136 3135 3135 3135 3135 3134 3134 3134 3133 3133 3133 3132 3132 3131 3131 3131 3131 3131 3131 3131 3130 3130 3130 3130 3129 3129 3129 3128 3128 3128 3128 3127 3127 3127 3127 3126 3126 3126 3125 3125 3125 3125 3124 3124 3124 3124 3124 3123 3123 3123 3123 3123 3123 3122 3122 3122 3122 3121 3121 3121 3120 3120 3119 3119 3119
3144 3144 3144 3144 3144 3143 3143 3143 3143 3142 3142 3142 3142 3142 3142 3142 3141 3141 3141 3141 3140 3140 3140 3139 3139 3139 3138 3138 3138 3137 3137 3137 3137 3137 3136 3136 3136 3135 3135 3135 3134 3134 3134 3133 3133 3133 3132 3132 3132 3132 3131 3131 3130 3130 3130 3129 3129 3129 3129 3129 3129 3129 3128 3128 3128 3127 3127 3127 3127 3127 3126 3126 3126 3125 3125 3125 3124 3124 3124 3123 3123 3123 3123 3123 3122 3122 3122 3122 3122 3122 3122 3122 3122 3121 3121 3121 3120 3120 3119 3119 3118 3118 3118
3143 3143 3143 3143 3143 3143 3142 3142 3142 3142 3142 3141 3141 3141 3141 3141 3140 3140 3140 3140 3140 3139 3139 3139 3138 3138 3138 3137 3137 3137 3137 3136 3136 3136 3135 3135 3135 3134 3134 3134 3133 3133 3133 3132 3132 3132 3132 3131 3131 3131 3130 3130 3129 3129 3128 3128 3128 3128 3128 3128 3127 3127 3127 3127 3127 3127 3126 3126 3126 3126 3125 3125 3125 3124 3124 3123 3123 3123 3122 3122 3122 3122 3122 3122 3122 3121 3121 3121 3121 3121 3121 3121 3121 3120 3120 3120 3119 3119 3118 3118 3117 3117 3117
3142 3142 3142 3142 3142 3142 3142 3142 3141 3141 3141 3140 3140 3140 3140 3140 3139 3139 3139 3139 3139 3138 3138 3138 3137 3137 3137 3136 3136 3136 3135 3135 3135 3134 3134 3134 3134 3133 3133 3133 3132 3132 3132 3132 3131 3131 3131 3130 3130 3130 3129 3129 3128 3128 3127 3127 3127 3127 3126 3126 3126 3126 3126 3126 3126 3125 3125 3125 3125 3124 3124 3124 3123 3123 3123 3122 3122 3122 3121 3121 3121 3121 3121 3120 3120 3120 3120 3120 3120 3120 3120 3120 3120 3119 3119 3119 3118 3118 3118 3117 3117 3116 3116
3142 3141 3141 3141 3141 3141 3141 3141 3140 3140 3140 3139 3139 3139 3139 3138 3138 3138 3138 3138 3138 3137 3137 3137 3137 3136 3136 3135 3135 3135 3134 3134 3134 3133 3133 3133 3132 3132 3132 3132 3132 3131 3131 3131 3130 3130 3130 3129 3129 3128 3128 3128 3127 3127 3127 3126 3126 3125 3125 3125 3125 3124 3124 3124 3124 3124 3124 3123 3123 3123 3123 3122 3122 3122 3122 3121 3121 3121 3120 3120 3120 3119 3119 3119 3119 3119 3119 3119 3119 3119 3119 3119 3119 3118 3118 3118 3118 3117 3117 3117 3116 3116 3115
3140 3140 3140 3140 3140 3140 3140 3139 3139 3139 3139 3138 3138 3138 3137 3137 3137 3137 3137 3137 3137 3136 3136 3136 3135 3135 3135 3134 3134 3133 3133 3133 3132 3132 3132 3132 3132 3131 3131 3131 3130 3130 3130 3130 3129 3129 3129 3128 3128 3127 3127 3127 3126 3126 3125 3125 3124 3124 3124 3123 3123 3123 3122 3122 3122 3122 3122 3122 3122 3121 3121 3121 3121 3120 3120 3120 3119 3119 3119 3119 3118 3118 3118 3118 3118 3118 3117 3117 3117 3117 3117 3117 3117 3117 3117 3117 3117 3117 3116 3116 3115 3115 3114
3139 3139 3139 3139 3139 3139 3138 3138 3138 3138 3137 3137 3137 3137 3136 3136 3136 3136 3136 3136 3135 3135 3135 3134 3134 3134 3133 3133 3133 3132 3132 3132 3132 3131 3131 3131 3130 3130 3130 3129 3129 3129 3129 3128 3128 3128 3127 3127 3127 3126 3126 3125 3125 3124 3124 3124 3123 3123 3122 3122 3122 3121 3121 3121 3121 3120 3120 3120 3120 3120 3119 3119 3119 3119 3118 3118 3118 3118 3117 3117 3117 3117 3117 3117 3117 3116 3116 3116 3116 3116 3116 3116 3116 3116 3116 3116 3116 3116 3115 3115 3114 3114 3113
3139 3138 3138 3138 3138 3138 3137 3137 3137 3137 3136 3136 3136 3136 3135 3135 3135 3135 3135 3134 3134 3134 3133 3133 3133 3132 3132 3132 3132 3131 3131 3131 3130 3130 3130 3130 3129 3129 3129 3128 3128 3128 3127 3127 3127 3127 3126 3126 3126 3125 3125 3124 3123 3123 3122 3122 3122 3121 3121 3121 3120 3120 3119 3119 3119 3118 3118 3118 3118 3118 3118 3117 3117 3117 3117 3117 3117 3117 3116 3116 3116 3116 3116 3115 3115 3115 3115 3115 3115 3115 3115 3115 3115 3115 3115 3115 3115 3114 3114 3114 3113 3113 3112
3138 3137 3137 3137 3137 3137 3137 3136 3136 3135 3135 3135 3135 3134 3134 3134 3134 3134 3133 3133 3133 3132 3132 3132 3132 3131 3131 3131 3130 3130 3130 3129 3129 3129 3129 3128 3128 3128 3127 3127 3127 3127 3126 3126 3126 3126 3125 3125 3124 3124 3123 3123 3122 3122 3121 3121 3120 3120 3119 3119 3118 3118 3118 3117 3117 3117 3117 3116 3116 3116 3116 3116 3116 3115 3115 3115 3115 3115 3115 3115 3114 3114 3114 3114 3114 3114 3114 3113 3113 3113 3113 3113 3113 3113 3113 3113 3113 3113 3113 3112 3112 3112 3112
3137 3137 3137 3137 3136 3136 3135 3135 3135 3134 3134 3134 3133 3133 3133 3133 3133 3132 3132 3132 3132 3131 3131 3131 3130 3130 3130 3129 3129 3129 3128 3128 3128 3128 3127 3127 3127 3127 3126 3126 3126 3126 3125 3125 3125 3124 3124 3124 3123 3122 3122 3122 3121 3121 3120 3119 3119 3118 3118 3117 3117 3117 3116 3116 3116 3115 3115 3115 3114 3114 3114 3114 3114 3114 3113 3113 3113 3113 3113 3113 3113 3113 3113 3113 3112 3112 3112 3112 3112 3112 3112 3112 3112 3112 3112 3112 3112 3112 3112 3111 3111 3111 3110
3136 3136 3136 3136 3135 3135 3135 3134 3134 3133 3133 3133 3132 3132 3132 3132 3132 3132 3131 3131 3131 3130 3130 3130 3129 3129 3129 3128 3128 3128 3127 3127 3127 3127 3126 3126 3126 3126 3125 3125 3125 3124 3124 3124 3123 3123 3123 3122 3122 3121 3121 3120 3120 3119 3119 3118 3117 3117 3117 3116 3116 3115 3115 3114 3114 3114 3113 3113 3113 3112 3112 3112 3112 3112 3112 3112 3112 3112 3112 3112 3112 3112 3111 3111 3111 3111 3111 3111 3111 3110 3110 3110 3110 3110 3110 3110 3110 3110 3110 3110 3110 3109 3109
3136 3135 3135 3135 3135 3134 3134 3133 3133 3132 3132 3132 3132 3131 3131 3131 3131 3130 3130 3130 3130 3129 3129 3129 3128 3128 3127 3127 3127 3127 3126 3126 3126 3125 3125 3125 3124 3124 3124 3124 3123 3123 3123 3122 3122 3122 3122 3121 3121 3120 3120 3119 3119 3118 3117 3117 3116 3116 3115 3115 3114 3114 3113 3113 3113 3112 3112 3112 3111 3111 3111 3111 3110 3110 3110 3110 3110 3110 3110 3110 3110 3110 3110 3110 3109 3109 3109 3109 3109 3109 3109 3109 3109 3109 3109 3109 3109 3108 3108 3108 3108 3108 3108
3135 3135 3134 3134 3134 3134 3133 3133 3132 3132 3132 3131 3131 3131 3130 3130 3130 3129 3129 3129 3128 3128 3128 3127 3127 3127 3127 3126 3126 3125 3125 3125 3124 3124 3124 3123 3123 3123 3122 3122 3122 3122 3121 3121 3121 3121 3120 3120 3119 3119 3118 3118 3117 3117 3117 3116 3115 3115 3114 3113 3113 3112 3112 3112 3111 3111 3111 3110 3110 3110 3109 3109 3109 3108 3108 3108 3108 3108 3107 3108 3108 3108 3108 3108 3108 3107 3107 3107 3107 3107 3107 3107 3107 3107 3107 3107 3107 3107 3107 3107 3107 3107 3106
3134 3134 3134 3134 3133 3133 3133 3132 3132 3132 3131 3131 3130 3130 3130 3129 3129 3128 3128 3128 3127 3127 3127 3127 3126 3126 3125 3125 3124 3124 3124 3123 3123 3122 3122 3122 3122 3121 3121 3121 3120 3120 3120 3119 3119 3119 3119 3118 3118 3117 3117 3117 3116 3116 3115 3115 3114 3113 3112 3112 3111 3111 3110 3110 3110 3109 3109 3108 3108 3108 3107 3107 3107 3107 3107 3106 3106 3106 3106 3106 3106 3106 3106 3106 3106 3106 3106 3106 3106 3106 3105 3105 3105 3105 3105 3105 3105 3105 3105 3105 3105 3105 3105
3134 3134 3133 3133 3133 3132 3132 3132 3132 3131 3131 3130 3130 3129 3129 3128 3128 3128 3127 3127 3127 3126 3126 3125 3125 3125 3124 3124 3123 3122 3122 3122 3122 3121 3121 3120 3120 3120 3119 3119 3119 3118 3118 3118 3117 3117 3117 3117 3117 3116 3116 3115 3115 3114 3114 3113 3113 3112 3112 3111 3110 3110 3109 3109 3108 3108 3107 3107 3107 3106 3106 3106 3105 3105 3105 3104 3104 3104 3104 3104 3103 3103 3104 3104 3104 3104 3104 3104 3104 3104 3104 3104 3103 3103 3103 3103 3103 3103 3103 3103 3103 3103 3103
3133 3133 3133 3132 3132 3132 3132 3131 3131 3130 3130 3129 3129 3128 3128 3127 3127 3127 3126 3126 3125 3125 3125 3124 3124 3123 3123 3122 3122 3121 3121 3120 3120 3119 3119 3119 3118 3118 3118 3117 3117 3117 3116 3116 3116 3116 3115 3115 3115 3114 3114 3114 3113 3113 3112 3112 3112 3111 3110 3110 3109 3108 3108 3107 3107 3107 3106 3106 3105 3105 3104 3104 3104 3103 3103 3103 3102 3102 3102 3102 3102 3102 3102 3102 3102 3102 3102 3102 3102 3102 3102 3102 3102 3102 3102 3102 3102 3102 3102 3102 3102 3101 3101
3133 3132 3132 3132 3132 3131 3131 3130 3130 3129 3129 3128 3128 3127 3127 3126 3126 3125 3125 3124 3124 3124 3123 3123 3122 3122 3122 3121 3120 3120 3119 3119 3118 3118 3117 3117 3117 3117 3116 3116 3115 3115 3115 3114 3114 3114 3113 3113 3113 3113 3112 3112 3112 3111 3111 3110 3110 3109 3109 3108 3108 3107 3107 3106 3106 3105 3105 3104 3104 3103 3103 3102 3102 3102 3102 3101 3101 3101 3100 3100 3100 3100 3100 3100 3100 3100 3100 3100 3100 3100 3100 3100 3100 3100 3100 3100 3100 3100 3100 3099 3099 3099 3099
3132 3132 3131 3131 3130 3130 3130 3129 3129 3128 3128 3127 3127 3126 3126 3125 3124 3124 3123 3123 3122 3122 3122 3121 3121 3120 3120 3119 3119 3118 3118 3117 3117 3117 3116 3116 3115 3115 3114 3114 3114 3113 3113 3113 3112 3112 3112 3112 3111 3111 3111 3110 3110 3109 3109 3108 3108 3108 3107 3107 3106 3106 3105 3105 3104 3104 3103 3103 3102 3102 3102 3101 3101 3101 3100 3100 3100 3099 3099 3099 3098 3098 3098 3098 3098 3099 3099 3099 3098 3098 3098 3098 3098 3098 3098 3098 3098 3098 3098 3097 3097 3097 3097
3131 3130 3130 3130 3129 3129 3128 3128 3127 3127 3127 3126 3125 3125 3124 3124 3123 3122 3122 3122 3121 3121 3120 3120 3119 3119 3118 3118 3117 3117 3116 3116 3115 3115 3115 3114 3114 3113 3113 3113 3112 3112 3112 3111 3111 3111 3110 3110 3110 3109 3109 3109 3108 3107 3107 3107 3106 3106 3105 3105 3104 3104 3104 3103 3103 3102 3102 3101 3101 3101 3100 3100 3099 3099 3099 3098 3098 3098 3097 3097 3097 3097 3097 3097 3097 3097 3097 3097 3097 3097 3097 3096 3096 3096 3096 3096 3096 3096 3096 3096 3096 3096 3096
3130 3129 3129 3128 3128 3127 3127 3127 3126 3126 3125 3125 3124 3124 3123 3122 3122 3121 3121 3120 3119 3119 3118 3118 3117 3117 3117 3116 3116 3115 3115 3114 3114 3113 3113 3112 3112 3112 3112 3111 3111 3111 3110 3110 3109 3109 3109 3108 3108 3108 3107 3107 3107 3106 3106 3105 3105 3104 3103 3103 3102 3102 3102 3101 3101 3100 3100 3100 3099 3099 3098 3098 3098 3097 3097 3097 3097 3096 3096 3096 3096 3095 3095 3095 3095 3095 3096 3095 3095 3095 3095 3094 3094 3094 3094 3094 3094 3094 3094 3094 3093 3093 3093
3129 3128 3128 3127 3127 3127 3126 3126 3125 3125 3124 3123 3123 3122 3122 3121 3121 3120 3119 3119 3118 3117 3117 3117 3116 3116 3115 3115 3114 3114 3113 3113 3112 3112 3112 3111 3111 3110 3110 3110 3109 3109 3108 3108 3108 3107 3107 3107 3106 3106 3105 3105 3105 3104 3104 3103 3103 3102 3102 3101 3101 3100 3100 3099 3099 3098 3098 3098 3097 3097 3097 3096 3096 3096 3095 3095 3095 3094 3094 3094 3094 3093 3093 3093 3093 3093 3093 3093 3093 3093 3093 3092 3092 3092 3092 3092 3092 3092 3092 3092 3092 3091 3091
3128 3127 3127 3127 3126 3125 3125 3124 3124 3123 3123 3122 3122 3122 3121 3120 3120 3119 3118 3118 3117 3117 3116 3116 3115 3114 3114 3113 3113 3113 3112 3112 3111 3111 3111 3110 3110 3109 3109 3108 3108 3107 3107 3106 3106 3105 3105 3105 3104 3104 3103 3103 3102 3102 3102 3101 3101 3100 3100 3100 3099 3099 3098 3098 3097 3097 3096 3096 3096 3095 3095 3094 3094 3094 3094 3093 3093 3093 3092 3092 3092 3092 3092 3091 3091 3091 3091 3091 3091 3091 3091 3091 3091 3090 3090 3090 3090 3090 3090 3089 3089 3089 3089
3127 3127 3126 3126 3125 3125 3124 3124 3123 3122 3122 3121 3121 3121 3120 3119 3119 3118 3118 3117 3117 3116 3116 3115 3114 3114 3113 3113 3112 3112 3112 3111 3111 3110 3110 3109 3109 3108 3108 3107 3107 3106 3106 3105 3104 3104 3103 3103 3102 3102 3102 3101 3101 3100 3100 3099 3099 3098 3098 3098 3097 3097 3097 3096 3096 3095 3095 3094 3094 3093 3093 3093 3092 3092 3092 3092 3091 3091 3091 3090 3090 3090 3090 3089 3089 3089 3089 3089 3089 3089 3088 3088 3088 3088 3088 3088 3088 3088 3087 3087 3087 3087 3087
3127 3126 3126 3125 3125 3124 3123 3123 3122 3122 3121 3121 3120 3120 3119 3119 3118 3117 3117 3116 3116 3115 3115 3114 3114 3113 3113 3112 3112 3111 3111 3110 3110 3109 3109 3108 3108 3107 3107 3106 3106 3105 3104 3104 3103 3102 3102 3102 3101 3101 3100 3100 3099 3099 3098 3098 3097 3097 3097 3096 3096 3095 3095 3094 3094 3094 3093 3093 3092 3092 3092 3091 3091 3090 3090 3090 3089 3089 3089 3088 3088 3088 3088 3087 3087 3087 3087 3087 3087 3087 3087 3086 3086 3086 3086 3086 3086 3085 3085 3085 3085 3085 3085
3126 3126 3125 3125 3124 3123 3123 3122 3122 3121 3120 3120 3119 3119 3118 3118 3117 3117 3116 3116 3115 3115 3114 3114 3113 3113 3112 3112 3111 3111 3110 3110 3109 3108 3108 3107 3107 3107 3106 3106 3105 3104 3104 3103 3102 3102 3101 3101 3100 3100 3099 3098 3098 3098 3097 3097 3097 3096 3095 3095 3094 3094 3093 3093 3092 3092 3092 3092 3091 3091 3090 3090 3089 3089 3088 3088 3087 3087 3087 3087 3086 3086 3086 3086 3085 3085 3085 3084 3084 3084 3084 3084 3083 3083 3083 3083 3083 3083 3083 3083 3082 3082 3082
3126 3125 3125 3124 3123 3123 3122 3122 3121 3120 3120 3119 3118 3118 3118 3117 3117 3116 3115 3115 3115 3114 3114 3113 3113 3112 3112 3111 3111 3110 3109 3109 3108 3108 3107 3107 3106 3106 3105 3105 3104 3103 3103 3102 3102 3101 3100 3100 3099 3098 3098 3097 3097 3097 3096 3096 3096 3095 3094 3094 3093 3093 3092 3092 3091 3091 3091 3090 3090 3089 3089 3088 3087 3087 3087 3086 3086 3085 3085 3085 3084 3084 3084 3084 3083 3083 3083 3082 3082 3082 3082 3082 3081 3081 3081 3081 3081 3081 3080 3080 3080 3080 3080
3125 3125 3124 3123 3123 3122 3121 3121 3120 3120 3119 3118 3118 3117 3117 3117 3116 3115 3115 3114 3114 3113 3113 3112 3112 3111 3111 3110 3110 3109 3108 3108 3107 3107 3106 3106 3105 3105 3104 3104 3103 3102 3102 3101 3100 3100 3099 3098 3098 3097 3097 3096 3096 3095 3095 3095 3094 3094 3093 3092 3092 3092 3091 3091 3090 3090 3089 3089 3088 3088 3087 3087 3086 3085 3085 3084 3084 3083 3083 3082 3082 3082 3082 3082 3081 3081 3081 3080 3080 3080 3079 3080 3079 3079 3078 3078 3078 3078 3078 3077 3077 3077 3077
3125 3124 3123 3122 3122 3121 3121 3120 3119 3119 3118 3117 3117 3117 3116 3116 3115 3115 3114 3113 3113 3112 3112 3112 3111 3110 3110 3109 3109 3108 3107 3107 3106 3106 3105 3105 3104 3104 3103 3103 3102 3101 3100 3100 3099 3098 3098 3097 3097 3096 3096 3095 3094 3094 3093 3093 3092 3092 3092 3091 3090 3090 3089 3089 3088 3088 3087 3087 3087 3086 3086 3085 3084 3084 3083 3082 3082 3082 3081 3081 3080 3080 3080 3079 3079 3079 3078 3078 3078 3077 3077 3077 3077 3077 3076 3076 3075 3075 3075 3075 3075 3075 3074
3124 3123 3122 3122 3121 3121 3120 3120 3119 3118 3118 3117 3117 3116 3115 3115 3114 3114 3113 3113 3112 3112 3111 3110 3110 3109 3109 3108 3107 3107 3106 3106 3105 3105 3104 3103 3103 3102 3102 3101 3101 3100 3099 3098 3098 3097 3097 3096 3095 3095 3094 3093 3093 3092 3092 3091 3091 3090 3090 3089 3088 3088 3087 3087 3087 3086 3086 3085 3085 3084 3084 3083 3083 3082 3082 3081 3080 3080 3079 3079 3078 3078 3077 3077 3077 3077 3076 3076 3076 3075 3075 3074 3074 3074 3073 3073 3073 3072 3072 3072 3072 3072 3072
3123 3122 3122 3121 3121 3121 3120 3119 3119 3118 3117 3117 3116 3115 3115 3114 3113 3113 3113 3112 3111 3111 3110 3109 3109 3108 3107 3107 3106 3106 3105 3104 3104 3103 3103 3102 3102 3101 3100 3100 3099 3098 3098 3097 3096 3096 3095 3094 3094 3093 3092 3092 3091 3091 3090 3089 3089 3088 3087 3087 3086 3086 3085 3085 3084 3084 3083 3083 3082 3082 3082 3081 3081 3080 3080 3079 3078 3078 3077 3077 3077 3076 3076 3075 3075 3074 3074 3074 3073 3073 3072 3072 3072 3072 3071 3070 3070 3070 3070 3069 3069 3069 3069
3122 3122 3121 3121 3121 3120 3120 3119 3118 3117 3117 3116 3115 3115 3114 3113 3113 3112 3112 3111 3111 3110 3109 3108 3107 3107 3106 3106 3105 3104 3103 3103 3102 3102 3101 3101 3100 3099 3099 3098 3097 3097 3096 3095 3095 3094 3093 3093 3092 3092 3091 3090 3090 3089 3088 3087 3087 3086 3086 3085 3084 3083 3083 3082 3082 3081 3081 3080 3080 3079 3079 3078 3078 3077 3077 3077 3076 3076 3075 3075 3074 3074 3073 3073 3072 3072 3072 3071 3071 3071 3070 3070 3070 3069 3068 3068 3067 3067 3067 3067 3066 3066 3066
3121 3121 3121 3120 3120 3119 3119 3118 3117 3117 3116 3115 3115 3114 3113 3112 3112 3111 3111 3110 3109 3109 3108 3107 3106 3106 3105 3104 3104 3103 3102 3101 3101 3100 3100 3099 3099 3098 3097 3097 3096 3095 3094 3094 3093 3092 3092 3091 3090 3090 3089 3088 3088 3087 3086 3085 3085 3084 3084 3083 3082 3082 3081 3080 3079 3079 3078 3077 3077 3077 3076 3076 3075 3075 3074 3074 3073 3073 3073 3072 3072 3072 3071 3071 3070 3070 3069 3069 3068 3068 3068 3067 3067 3067 3066 3065 3065 3064 3064 3063 3063 3063 3063
3120 3120 3120 3119 3119 3118 3118 3117 3117 3116 3115 3114 3113 3113 3112 3112 3111 3110 3109 3109 3108 3107 3107 3106 3105 3104 3103 3103 3102 3102 3101 3100 3099 3098 3098 3098 3097 3097 3096 3095 3094 3093 3093 3092 3091 3091 3090 3089 3088 3088 3087 3087 3086 3085 3084 3083 3083 3082 3082 3081 3080 3079 3078 3078 3077 3076 3076 3075 3075 3074 3073 3073 3072 3072 3071 3071 3071 3070 3070 3070 3069 3069 3068 3068 3068 3067 3067 3066 3066 3065 3065 3065 3064 3064 3063 3063 3062 3062 3061 3061 3060 3060 3060
3120 3119 3119 3118 3118 3117 3117 3117 3116 3115 3114 3113 3112 3112 3111 3111 3110 3109 3108 3108 3107 3106 3105 3104 3103 3102 3102 3101 3101 3100 3099 3098 3097 3097 3096 3096 3096 3095 3094 3093 3092 3092 3091 3090 3089 3089 3088 3087 3087 3086 3086 3085 3084 3083 3082 3081 3081 3080 3079 3079 3078 3077 3077 3076 3075 3074 3073 3073 3072 3072 3071 3070 3070 3069 3068 3068 3067 3067 3067 3067 3066 3066 3066 3065 3065 3064 3064 3063 3063 3062 3062 3062 3061 3061 3060 3060 3059 3059 3058 3058 3057 3057 3057
3119 3118 3118 3118 3117 3117 3116 3116 3115 3114 3113 3112 3111 3111 3110 3109 3108 3108 3107 3106 3106 3105 3104 3103 3102 3101 3100 3100 3099 3098 3098 3097 3096 3095 3094 3094 3093 3093 3092 3091 3090 3089 3089 3088 3087 3087 3086 3085 3084 3084 3083 3082 3082 3081 3080 3079 3078 3077 3077 3076 3075 3075 3074 3073 3073 3072 3072 3071 3070 3069 3069 3068 3067 3067 3066 3065 3065 3064 3064 3063 3063 3063 3062 3062 3062 3062 3061 3061 3060 3060 3059 3059 3058 3058 3057 3057 3057 3056 3056 3055 3055 3055 3054
3117 3117 3117 3117 3117 3116 3115 3115 3114 3113 3112 3111 3110 3109 3108 3108 3107 3106 3106 3105 3104 3103 3102 3102 3101 3100 3099 3098 3097 3097 3096 3095 3094 3093 3092 3092 3092 3091 3090 3089 3088 3087 3087 3086 3085 3084 3083 3083 3082 3082 3081 3080 3079 3078 3077 3077 3076 3075 3074 3073 3073 3072 3071 3071 3070 3070 3069 3068 3068 3067 3066 3066 3065 3064 3063 3063 3062 3062 3061 3061 3060 3060 3059 3059 3058 3058 3058 3057 3057 3057 3056 3056 3055 3055 3054 3054 3053 3053 3052 3052 3052 3052 3052
3117 3116 3116 3116 3115 3115 3114 3113 3112 3111 3110 3109 3109 3108 3107 3106 3106 3105 3104 3103 3102 3102 3101 3100 3099 3098 3097 3097 3096 3095 3094 3093 3092 3092 3091 3090 3089 3089 3088 3087 3086 3085 3084 3083 3082 3082 3081 3080 3080 3079 3078 3077 3076 3076 3075 3073 3073 3072 3071 3071 3070 3069 3068 3068 3067 3067 3067 3066 3065 3064 3064 3063 3062 3062 3061 3060 3059 3059 3058 3057 3057 3057 3056 3056 3055 3055 3055 3054 3054 3053 3053 3052 3052 3052 3051 3051 3050 3050 3049 3049 3049 3049 3048
3115 3115 3114 3114 3113 3113 3112 3111 3110 3109 3108 3107 3107 3106 3105 3104 3103 3102 3102 3101 3100 3099 3098 3097 3097 3096 3095 3094 3093 3093 3092 3091 3090 3089 3088 3088 3087 3087 3086 3085 3083 3082 3081 3080 3079 3079 3078 3077 3077 3076 3075 3074 3073 3072 3072 3071 3070 3069 3069 3068 3067 3066 3066 3065 3064 3064 3063 3062 3062 3062 3061 3060 3060 3059 3058 3057 3057 3056 3055 3055 3054 3053 3053 3052 3052 3052 3051 3051 3051 3050 3050 3049 3049 3048 3048 3047 3047 3046 3046 3045 3045 3045 3045
3114 3113 3113 3112 3112 3111 3110 3109 3108 3107 3106 3105 3105 3104 3103 3102 3101 3100 3099 3098 3097 3097 3096 3095 3094 3093 3092 3092 3091 3090 3089 3088 3087 3086 3086 3085 3084 3083 3083 3082 3080 3079 3078 3077 3076 3076 3075 3075 3074 3073 3072 3072 3071 3070 3069 3068 3068 3067 3066 3065 3064 3063 3062 3062 3061 3061 3060 3059 3058 3058 3058 3057 3057 3056 3055 3054 3053 3053 3052 3051 3051 3050 3050 3049 3049 3048 3048 3047 3047 3047 3046 3046 3046 3045 3045 3044 3044 3043 3043 3042 3042 3042 3041
3112 3112 3111 3110 3110 3109 3108 3107 3106 3105 3104 3103 3103 3102 3101 3100 3099 3098 3097 3096 3095 3095 3094 3092 3091 3090 3090 3089 3088 3087 3087 3086 3084 3083 3082 3082 3081 3080 3079 3078 3077 3076 3075 3074 3073 3072 3072 3072 3071 3070 3070 3069 3068 3067 3067 3066 3065 3065 3063 3062 3062 3061 3060 3059 3058 3057 3057 3056 3055 3055 3054 3054 3053 3053 3052 3051 3050 3049 3049 3048 3047 3047 3046 3046 3045 3045 3044 3044 3043 3043 3043 3042 3042 3042 3041 3041 3041 3040 3040 3039 3038 3038 3038
3111 3110 3109 3109 3108 3107 3106 3105 3104 3103 3102 3102 3101 3100 3099 3098 3097 3096 3095 3094 3093 3092 3092 3090 3089 3088 3087 3087 3086 3085 3084 3083 3082 3080 3079 3078 3077 3077 3076 3075 3074 3073 3072 3071 3070 3070 3069 3069 3068 3067 3067 3066 3065 3064 3064 3063 3063 3062 3061 3060 3059 3058 3057 3056 3055 3055 3054 3053 3052 3052 3051 3050 3050 3049 3048 3048 3047 3046 3045 3044 3044 3043 3042 3042 3041 3041 3041 3040 3040 3039 3039 3038 3038 3038 3038 3037 3037 3037 3036 3036 3035 3035 3035
3109 3108 3108 3107 3106 3105 3104 3103 3102 3101 3101 3100 3099 3098 3097 3096 3095 3093 3092 3092 3091 3090 3089 3088 3087 3085 3084 3084 3083 3082 3081 3080 3079 3078 3076 3075 3074 3073 3073 3072 3071 3071 3070 3069 3068 3067 3066 3066 3065 3064 3063 3062 3062 3061 3061 3060 3059 3058 3057 3056 3055 3055 3054 3053 3052 3052 3051 3050 3049 3048 3047 3047 3046 3046 3045 3044 3043 3042 3041 3041 3040 3039 3038 3038 3037 3037 3037 3036 3036 3036 3035 3035 3034 3034 3034 3033 3033 3033 3033 3032 3032 3032 3031
3108 3107 3106 3105 3104 3103 3102 3101 3100 3099 3098 3098 3097 3096 3095 3094 3092 3091 3090 3089 3088 3088 3087 3086 3085 3083 3082 3081 3080 3079 3078 3077 3076 3075 3073 3072 3071 3071 3070 3069 3068 3068 3067 3066 3065 3064 3063 3063 3062 3061 3060 3059 3059 3058 3058 3057 3056 3055 3054 3052 3052 3051 3050 3050 3049 3048 3048 3047 3046 3045 3044 3043 3042 3042 3041 3040 3039 3038 3037 3036 3036 3035 3035 3034 3033 3033 3032 3032 3032 3031 3031 3031 3030 3030 3030 3030 3029 3029 3029 3029 3028 3028 3028
3106 3105 3104 3103 3102 3101 3100 3099 3098 3097 3097 3096 3095 3094 3093 3092 3091 3089 3088 3087 3086 3085 3085 3084 3083 3081 3080 3078 3077 3076 3075 3074 3073 3072 3070 3069 3068 3067 3067 3066 3065 3064 3064 3063 3062 3061 3061 3059 3058 3057 3057 3056 3055 3055 3054 3053 3052 3051 3050 3049 3048 3047 3047 3046 3046 3045 3044 3043 3042 3041 3040 3039 3038 3037 3036 3035 3034 3033 3032 3032 3031 3031 3030 3029 3029 3028 3028 3027 3027 3027 3027 3026 3026 3026 3026 3026 3025 3025 3025 3025 3025 3024 3024
3104 3103 3102 3101 3100 3099 3098 3097 3097 3096 3095 3094 3093 3092 3091 3090 3089 3087 3086 3085 3084 3083 3082 3081 3080 3079 3078 3076 3075 3073 3072 3071 3069 3068 3067 3066 3065 3064 3063 3062 3062 3061 3060 3060 3059 3058 3057 3056 3055 3054 3053 3052 3052 3051 3051 3050 3049 3048 3047 3046 3045 3044 3043 3043 3042 3041 3040 3039 3038 3037 3036 3035 3034 3033 3032 3031 3030 3029 3028 3027 3026 3026 3025 3025 3024 3024 3023 3023 3022 3022 3022 3022 3022 3022 3021 3021 3021 3021 3021 3021 3021 3020 3020
3102 3102 3101 3100 3099 3098 3097 3096 3095 3094 3093 3092 3092 3090 3089 3088 3087 3086 3084 3083 3082 3081 3079 3078 3077 3077 3076 3074 3073 3071 3070 3068 3067 3065 3063 3062 3061 3060 3060 3059 3058 3057 3057 3056 3055 3054 3053 3052 3051 3050 3050 3049 3048 3048 3047 3046 3045 3044 3043 3042 3042 3041 3040 3040 3039 3038 3037 3035 3034 3033 3032 3031 3030 3029 3028 3027 3025 3024 3023 3022 3022 3021 3020 3020 3019 3019 3019 3018 3018 3018 3017 3017 3017 3017 3017 3017 3017 3017 3017 3017 3017 3016 3016
3101 3100 3099 3098 3097 3096 3095 3094 3093 3092 3092 3091 3090 3088 3087 3086 3085 3084 3082 3081 3080 3078 3077 3076 3075 3074 3073 3072 3071 3069 3067 3066 3064 3062 3060 3059 3058 3057 3056 3055 3054 3053 3052 3052 3051 3051 3050 3049 3047 3047 3046 3046 3045 3044 3043 3042 3041 3040 3040 3039 3038 3037 3037 3036 3036 3035 3033 3032 3031 3030 3029 3028 3027 3026 3025 3023 3022 3021 3019 3018 3017 3017 3016 3015 3015 3014 3014 3013 3013 3013 3013 3013 3012 3012 3012 3012 3012 3012 3012 3012 3012 3012 3012
3099 3098 3097 3097 3096 3094 3093 3092 3092 3090 3090 3089 3087 3087 3085 3084 3083 3082 3080 3079 3077 3076 3075 3074 3072 3071 3070 3069 3068 3067 3065 3063 3061 3059 3057 3056 3054 3053 3052 3051 3049 3049 3048 3047 3047 3046 3046 3045 3044 3043 3042 3042 3041 3040 3039 3038 3037 3037 3036 3035 3035 3034 3033 3033 3032 3032 3030 3029 3027 3027 3026 3025 3023 3022 3021 3020 3018 3017 3016 3015 3014 3013 3012 3011 3011 3010 3009 3009 3009 3008 3008 3008 3008 3008 3008 3008 3008 3008 3008 3008 3008 3008 3008
3098 3097 3096 3095 3094 3093 3092 3091 3090 3089 3087 3087 3086 3085 3083 3082 3081 3080 3078 3077 3075 3074 3072 3071 3070 3068 3067 3066 3065 3064 3063 3061 3059 3057 3055 3053 3051 3049 3049 3048 3047 3045 3044 3043 3042 3042 3041 3040 3040 3039 3038 3038 3037 3036 3035 3034 3033 3032 3032 3031 3030 3030 3029 3029 3028 3027 3026 3025 3024 3023 3022 3021 3020 3019 3017 3016 3015 3014 3013 3012 3011 3009 3008 3008 3007 3006 3006 3005 3005 3004 3004 3004 3004 3004 3004 3003 3003 3003 3003 3003 3003 3003 3003
3096 3095 3094 3093 3092 3091 3090 3089 3088 3087 3086 3085 3084 3082 3081 3080 3079 3077 3076 3075 3073 3072 3070 3069 3067 3066 3064 3063 3062 3061 3060 3058 3056 3054 3052 3050 3048 3045 3044 3043 3042 3042 3041 3040 3039 3038 3037 3036 3035 3035 3034 3033 3033 3032 3031 3030 3029 3028 3027 3027 3026 3025 3025 3024 3024 3022 3022 3021 3020 3019 3018 3017 3016 3015 3013 3012 3011 3010 3009 3008 3007 3006 3005 3004 3003 3003 3002 3002 3001 3001 3000 3000 3000 3000 2999 2999 2999 2999 2999 2999 2999 2999 2999
3094 3093 3092 3091 3090 3089 3088 3087 3086 3085 3084 3083 3082 3080 3079 3078 3077 3075 3074 3072 3071 3069 3068 3067 3065 3064 3062 3061 3060 3058 3057 3056 3054 3052 3049 3047 3046 3044 3041 3039 3037 3037 3037 3036 3036 3036 3034 3033 3031 3030 3029 3029 3028 3028 3027 3026 3025 3024 3023 3023 3022 3021 3020 3020 3019 3018 3017 3016 3015 3014 3014 3013 3012 3010 3009 3008 3007 3006 3005 3004 3003 3002 3002 3001 3000 2999 2999 2998 2997 2997 2997 2996 2996 2995 2995 2995 2995 2994 2994 2994 2994 2994 2994
3092 3091 3090 3089 3088 3087 3086 3085 3083 3082 3082 3081 3080 3078 3077 3076 3074 3073 3072 3070 3069 3067 3066 3064 3062 3061 3060 3059 3057 3056 3055 3054 3052 3050 3048 3045 3043 3042 3040 3037 3034 3032 3031 3030 3030 3031 3032 3030 3028 3026 3025 3024 3024 3023 3023 3022 3022 3021 3020 3019 3018 3017 3016 3016 3015 3013 3012 3011 3011 3010 3009 3008 3007 3006 3005 3004 3003 3002 3001 3000 2999 2999 2998 2997 2997 2996 2995 2995 2994 2994 2994 2993 2992 2992 2991 2991 2991 2990 2990 2990 2990 2990 2990
3090 3089 3088 3087 3086 3085 3083 3082 3082 3080 3079 3078 3077 3076 3075 3074 3072 3071 3069 3068 3067 3065 3063 3062 3060 3058 3057 3056 3055 3054 3053 3052 3050 3048 3046 3043 3041 3039 3037 3036 3033 3029 3028 3026 3023 3023 3026 3026 3023 3022 3021 3020 3019 3018 3018 3017 3017 3016 3016 3015 3014 3013 3012 3012 3011 3009 3008 3007 3006 3006 3005 3004 3003 3002 3001 3000 2999 2998 2997 2997 2996 2995 2994 2993 2992 2992 2992 2991 2991 2991 2990 2990 2989 2988 2988 2987 2987 2987 2986 2986 2986 2985 2985
3088 3087 3086 3085 3084 3083 3082 3081 3080 3078 3077 3076 3075 3074 3072 3071 3070 3069 3067 3066 3064 3062 3061 3059 3057 3056 3054 3053 3052 3051 3050 3049 3048 3046 3044 3042 3039 3037 3033 3032 3030 3028 3026 3024 3021 3017 3018 3019 3018 3016 3016 3016 3015 3013 3012 3012 3011 3011 3011 3010 3009 3009 3008 3007 3007 3005 3004 3003 3002 3001 3000 2999 2998 2997 2997 2996 2995 2994 2994 2993 2992 2991 2990 2990 2989 2988 2987 2987 2987 2987 2986 2986 2986 2985 2985 2984 2983 2983 2982 2982 2982 2981 2981
3087 3085 3084 3083 3082 3081 3080 3079 3078 3077 3075 3074 3073 3072 3070 3069 3068 3066 3065 3063 3061 3060 3058 3057 3055 3053 3051 3049 3048 3047 3047 3046 3045 3043 3042 3039 3037 3036 3032 3029 3027 3025 3023 3021 3019 3016 3013 3012 3011 3010 3009 3012 3010 3008 3007 3007 3006 3005 3004 3004 3004 3003 3003 3002 3002 3001 3000 2999 2998 2997 2996 2995 2994 2993 2992 2991 2990 2989 2989 2989 2988 2987 2987 2986 2985 2984 2983 2983 2983 2982 2982 2982 2982 2982 2981 2981 2980 2979 2979 2978 2977 2977 2977
3085 3084 3083 3082 3081 3079 3078 3077 3076 3075 3073 3072 3071 3069 3068 3067 3065 3064 3062 3061 3059 3057 3056 3054 3052 3050 3048 3046 3045 3043 3042 3042 3041 3040 3038 3037 3035 3033 3031 3028 3025 3022 3019 3017 3015 3013 3011 3009 3006 3003 3002 3006 3006 3003 3002 3002 3001 3000 2999 2998 2998 2997 2997 2997 2996 2996 2995 2994 2994 2993 2992 2991 2990 2988 2987 2986 2985 2984 2984 2984 2983 2983 2982 2982 2981 2980 2980 2979 2979 2978 2978 2977 2977 2977 2977 2977 2977 2976 2975 2975 2974 2973 2973
3083 3082 3081 3080 3079 3077 3076 3075 3074 3072 3071 3070 3068 3067 3066 3064 3063 3062 3060 3059 3057 3055 3053 3052 3050 3048 3046 3044 3042 3040 3039 3038 3037 3036 3035 3033 3032 3031 3029 3027 3024 3022 3020 3016 3012 3009 3006 3006 3004 2999 2994 2998 3001 3001 2998 2997 2997 2996 2995 2994 2993 2992 2992 2991 2991 2990 2990 2989 2989 2988 2987 2987 2986 2985 2983 2982 2981 2980 2979 2978 2978 2977 2977 2977 2976 2976 2975 2975 2974 2974 2973 2973 2973 2972 2972 2972 2972 2972 2971 2971 2970 2969 2969
3082 3080 3079 3078 3077 3075 3074 3073 3072 3070 3069 3067 3066 3065 3063 3062 3061 3059 3058 3057 3055 3053 3052 3050 3048 3046 3044 3042 3039 3037 3036 3034 3033 3031 3030 3029 3028 3027 3026 3024 3022 3020 3017 3015 3012 3009 3004 3002 3001 2997 2992 2990 2992 2995 2996 2994 2992 2992 2991 2990 2989 2987 2987 2986 2986 2985 2984 2984 2983 2983 2982 2982 2982 2981 2980 2978 2977 2976 2975 2974 2973 2972 2972 2971 2971 2971 2970 2970 2970 2969 2969 2969 2968 2968 2968 2968 2967 2967 2967 2966 2965 2965 2964
3079 3078 3077 3076 3074 3073 3072 3071 3069 3068 3067 3065 3064 3062 3061 3060 3058 3057 3056 3054 3052 3051 3049 3047 3045 3043 3041 3039 3037 3035 3033 3031 3029 3027 3026 3025 3023 3023 3022 3020 3018 3017 3015 3012 3010 3008 3005 3002 2998 2995 2992 2987 2984 2985 2989 2990 2989 2987 2986 2985 2985 2983 2982 2981 2981 2980 2979 2979 2978 2978 2977 2977 2977 2977 2976 2975 2974 2972 2971 2970 2969 2968 2967 2966 2966 2965 2965 2965 2964 2964 2964 2964 2964 2964 2963 2963 2962 2962 2961 2960 2960 2960 2959
3077 3076 3075 3073 3072 3071 3070 3068 3067 3065 3064 3062 3061 3060 3058 3057 3056 3054 3053 3052 3050 3048 3046 3044 3042 3040 3038 3036 3034 3032 3029 3027 3025 3023 3022 3020 3018 3017 3017 3016 3014 3012 3011 3009 3007 3006 3004 3001 2998 2995 2991 2987 2982 2979 2978 2982 2984 2983 2982 2981 2980 2979 2978 2977 2976 2975 2974 2973 2973 2972 2972 2972 2972 2972 2972 2971 2970 2969 2968 2966 2965 2964 2962 2962 2961 2960 2960 2959 2959 2959 2958 2958 2958 2959 2959 2959 2958 2957 2956 2954 2954 2954 2954
3075 3074 3072 3071 3070 3068 3067 3066 3064 3063 3062 3060 3059 3057 3056 3054 3053 3052 3050 3048 3047 3045 3043 3042 3040 3037 3035 3033 3031 3028 3026 3024 3022 3020 3018 3017 3015 3012 3012 3011 3009 3007 3007 3005 3003 3002 3000 2998 2997 2994 2991 2987 2983 2978 2975 2974 2976 2977 2977 2976 2976 2974 2973 2972 2972 2971 2970 2969 2968 2967 2966 2966 2966 2966 2967 2966 2965 2965 2964 2962 2961 2960 2959 2957 2956 2955 2954 2954 2953 2953 2953 2953 2953 2953 2954 2954 2954 2953 2952 2950 2948 2947 2948